Regional Weather Roundup
Issued by NWS

Home | Current Version | Previous Version | Text Only | Print | Product List | Glossary Off
Versions: 1 2 3 4 5 6 7 8 9 10 11 12 13 14 15 16 17 18 19 20 21 22 23 24 25 26 27 28 29 30 31 32 33 34 35 36 37 38 39 40 41 42 43 44 45 46 47 48 49 50

000
ASUS43 KFSD 202010
RWRSD

WEATHER ROUNDUP FOR SOUTH DAKOTA
NATIONAL WEATHER SERVICE SIOUX FALLS SD
300 PM CDT SAT SEP 20 2014

NOTE: "FAIR" INDICATES FEW OR NO CLOUDS BELOW 12,000 FEET WITH NO
SIGNIFICANT WEATHER AND/OR OBSTRUCTIONS TO VISIBILITY.


SDZ001>005-009-010-012>017-202100-
NORTHWEST AND NORTH CENTRAL SOUTH DAKOTA

CITY           SKY/WX    TMP DP  RH WIND       PRES   REMARKS
BUFFALO          N/A     73  37  27 N29G44    30.07S
FAITH            N/A     75  42  30 NW28G40   30.08R
MOBRIDGE       SUNNY     74  47  38 NW25G35   29.96R
$$

SDZ012>016-024>037-041>051-057-063-072>074-202100-
SOUTHWEST AND SOUTH CENTRAL SOUTH DAKOTA

CITY           SKY/WX    TMP DP  RH WIND       PRES   REMARKS
RAPID CTY ARPT SUNNY     77  40  26 NW29G44   30.15S
PIERRE         SUNNY     81  47  30 NW32G45   29.96R
CUSTER         SUNNY     71  34  25 N10       30.25S
ELLSWORTH AFB  SUNNY     77  41  27 NW25G33   30.14S
PHILIP         SUNNY     82  42  24 NW24G39   30.05R
PINE RIDGE     MOSUNNY   80  51  36 N10       30.12S
WINNER         FAIR      84  45  25 NW32G40   29.99S
$$

SDZ004>011-016>023-039-040-202100-
NORTHEAST SOUTH DAKOTA

CITY           SKY/WX    TMP DP  RH WIND       PRES   REMARKS
ABERDEEN         N/A    N/A N/A N/A MISG      29.87R
WATERTOWN      MOSUNNY   79  51  37 W24G33    29.80F
SISSETON         N/A     58  58 100 N21G29    29.83R
$$

SDZ017-020-022-023-036>040-048>070-202100-
SOUTHEAST SOUTH DAKOTA

CITY           SKY/WX    TMP DP  RH WIND       PRES   REMARKS
SIOUX FALLS    MOSUNNY   83  54  36 W13G23    29.87F
HURON          MOSUNNY   84  46  26 NW24G39   29.86S
CHAMBERLAIN    MOSUNNY   81  46  28 NW28G35   29.95S
MITCHELL       PTSUNNY   83  49  30 NW26G38   29.89F
YANKTON        MOSUNNY   82  54  36 W15G24    29.90F
$$

ABBREVIATIONS USED IN REMARKS
   TC - TEMPERATURE IN CELSIUS
  WCI - WIND CHILL INDEX
   HX - HEAT INDEX
  VSB - VISIBILITY



USA.gov is the U.S. government's official web portal to all federal, state and local government web resources and services.